Tracking 29892 objects as of 21-Nov-2024
HD Live streaming from Space Station
objects crossing your sky now

NUSAT-39 (TIKVAH ALPER)

Track NUSAT-39 (TIKVAH ALPER) now!
10-day predictions


NORAD ID: 56201
Int'l Code: 2023-054Z
Perigee: 443.8 km
Apogee: 451.8 km
Inclination: 97.3 °
Period: 93.4 minutes
Semi major axis: 6818 km
RCS: Unknown
Launch date: April 15, 2023
Source: Argentina (ARGN)
Launch site: AIR FORCE WESTERN TEST RANGE (AFWTR)
Your satellite tracking list
Your tracking list is empty




NASA's NSSDC Master Catalog

Two Line Element Set (TLE):
1 56201U 23054Z   24326.09872971  .00041265  00000-0  97048-3 0  9997
2 56201  97.3437 222.5759 0005872 346.2680  13.8407 15.41852074 90168
Source of the keplerian elements: AFSPC